Location: Gugi
(45.4667°N, 11.1000°E)
Time: 13:51:46
(UTC+00:00)

Okean O Rocket - Pass Details

Date: 17 November 2019
Orbit: 622 x 645 km, 98.2° (Epoch: 07 December)

Event Time Altitude Azimuth Distance (km) Brightness Sun altitude
Rises 16:38:27 0° 193° (SSW) 2,922 5.5 -9.7°
Reaches altitude 10° 16:40:54 10° 205° (SSW) 2,015 4.8 -10.1°
Maximum altitude 16:44:41 28° 264° (W) 1,189 4.0 -10.7°
Drops below altitude 10° 16:48:29 10° 324° (NW) 2,016 4.5 -11.4°
Sets 16:50:56 0° 336° (NNW) 2,925 5.1 -11.8°
